Find Starlink 33683

NORAD ID: 63573 Int'l Des: 2025-076 Owner: SPXS Country: US Constellation: starlink operational
LEOCIRCULAR

Live Position

Loading 3D Globe...

About Starlink 33683

Description loading...

Upcoming Passes

Passes for default location (London). Set your location on the main map for personalized predictions.

Altitude History

Loading altitude history...

Two-Line Element Set

1 63573U 25076E 26106.07061440 .00002646 00000-0 10561-3 0 9995
2 63573 43.0009 110.9059 0001299 261.5453 98.5252 15.27584524 57549
Epoch: Apr 16, 2026 • Age: 17 hours

Current Status

Altitude 486.9 km
Velocity 7.62 km/s
Sub-Earth Point -19.75°S, 169.9°W
Launch Date Apr 14, 2025
Age 1 years
Type internet

Technical Details

Classification Payload
Mass 575.00 kg
Dry Mass 530.00 kg
Total Mass 575.00 kg
Length 0.30 m
Diameter 4.10 m
Span 29.00 m
Shape Box + pan
Manufacturer SPXS
Bus Type Starlink V2MO
Phase Status In Orbit
Owner/State SPXS/US

Most Searched